Location: Hall+in+Tirol
(47.2830°N, 11.5170°E)
Time: 13:11:17
(UTC+02:00)

Daily predictions for brighter satellites

Satellite Brightness Start Highest point End
(mag) Time Altitude Azimuth Time Altitude Azimuth Time Altitude Azimuth
Cosmos 2322 4.1 18:41:55 10° NNW 18:47:22 42° NE 18:52:47 10° SE
Cosmos-2242 2.9 18:44:19 10° S 18:48:33 71° E 18:52:48 10° NNE
GP-B 3.5 18:44:38 10° NNE 18:48:52 41° E 18:53:04 10° SSE
deb Kosmos-1763 4.2 18:46:46 10° S 18:50:33 65° ESE 18:54:22 10° NNE
CORIOLIS 4.3 18:45:18 10° SSE 18:50:41 85° WSW 18:56:09 10° NNW
FENGYUN 3A 4.2 18:48:01 10° SE 18:52:53 36° ENE 18:57:48 10° N
Meteor 2-21 Rocket 4.4 18:46:56 10° S 18:52:57 67° E 18:58:58 10° NNE
Meteor 1-16 Rocket 4.1 18:49:14 10° S 18:54:29 69° E 18:59:50 10° NNE
Cosmos 2151 3.4 18:50:25 10° N 18:54:30 41° ENE 18:58:32 10° SSE
Cosmos 1315 Rocket 3.7 18:53:11 10° N 18:56:45 29° ENE 19:00:20 10° SE
Aureole 1 Rocket 3.7 18:51:41 10° S 18:58:05 69° ESE 19:02:55 10° NNE
SKYMED 2 4.0 18:56:49 10° NNE 19:00:59 42° E 19:05:06 10° S
Atlas Centaur 2 4.3 19:00:29 10° S 19:01:51 11° S 19:03:17 10° SSE
ISS -0.5 19:01:22 10° WSW 19:02:17 11° SW 19:03:13 10° SSW
BREEZE-M DEB (TANK) 3.0 19:03:34 10° SSW 19:05:32 23° SSE 19:06:53 13° E
Cosmos 1743 Rocket 3.5 19:01:13 10° N 19:05:36 69° E 19:09:58 10° SSE
MTI 3.7 19:02:45 10° NNE 19:05:59 74° ESE 19:09:10 10° S
Gbstr 26 Del rocket 3.7 19:01:49 10° WNW 19:06:29 60° NNE 19:12:01 11° E
Cosmos 2219 Rocket 3.3 19:02:23 10° N 19:06:58 25° NE 19:11:23 11° E
Cosmos 2366 rocket 4.0 19:01:22 10° S 19:07:31 68° E 19:13:39 10° NNE
EO 1 Del DPAF 3.2 19:05:40 10° NNE 19:09:30 63° ESE 19:13:18 10° S
BREEZE-M DEB (TANK) 3.6 19:10:22 10° WNW 19:14:04 84° SSW 19:27:50 10° ESE
CZ-2C R/B 4.0 19:10:22 10° N 19:14:55 72° WNW 19:19:22 10° SSW
ALOS 2.4 19:10:35 10° SE 19:15:06 51° ENE 19:19:39 10° N
RESURS DK-1 2.3 19:11:52 10° NNW 19:16:02 71° ENE 19:20:08 10° SE
Cosmos 1842 Rocket 3.6 19:12:14 10° S 19:16:37 59° E 19:21:01 10° NNE
Cosmos 2058 2.8 19:15:27 10° N 19:19:40 74° E 19:23:49 10° SSE
SL-16 R/B 3.6 19:14:35 10° NW 19:19:56 43° WSW 19:25:14 10° S
Cosmos 2221 3.3 19:16:45 10° SSE 19:20:30 30° E 19:24:18 10° NNE
Lacrosse 5 rocket 2.8 19:17:18 10° W 19:21:23 33° NNW 19:25:16 10° NE
SL-8 Rocket 4.3 19:15:23 10° SSW 19:21:33 74° W 19:27:50 10° N
SPOT 3 Rocket 3.6 19:18:59 10° SSE 19:24:11 88° ENE 19:29:27 10° NNW
Cosmos 2237 4.2 19:19:02 10° NNW 19:24:46 64° ENE 19:30:26 10° SE
SJ-6B 3.8 19:22:45 14° ESE 19:25:02 24° ENE 19:28:05 10° NNE
Cosmos 1461 3.7 19:21:14 10° SW 19:25:12 50° NW 19:29:22 10° NNE
Cosmos 921 Rocket 3.0 19:21:53 10° NNW 19:26:21 64° ENE 19:30:43 10° SSE
Cosmos 1500 Rocket 3.5 19:22:58 10° N 19:27:22 88° ENE 19:31:42 10° S
GRACE-2 3.7 19:25:02 10° SSE 19:27:33 52° E 19:30:05 10° N
GRACE-1 3.6 19:27:36 10° SSE 19:30:09 60° E 19:32:43 10° N
Resurs 01 Rocket 3.1 19:29:38 17° ENE 19:30:13 17° ENE 19:33:06 10° NNE
Cosmos 1703 3.5 19:30:48 10° NNW 19:34:44 72° W 19:38:38 10° S
Cosmos 2084 4.5 19:34:24 10° NNW 19:37:32 24° NE 19:38:36 21° ENE
Cosmos 2237 Rocket 3.4 19:33:03 10° N 19:37:42 25° NE 19:39:53 20° ENE
Cosmos 2098 Rocket 3.9 19:34:51 10° SSE 19:38:58 37° E 19:44:06 10° NNE
Cosmos 1452 Rocket 3.6 19:35:12 10° NNW 19:40:29 82° WSW 19:45:44 10° SSE
Cosmos 1000 Rocket 4.5 19:35:38 10° N 19:41:50 59° ENE 19:47:55 10° SSE
USA 234 3.9 19:37:13 17° ENE 19:41:53 43° NNE 19:47:59 10° NW
Cosmos 1821 Rocket 4.2 19:38:52 10° SSE 19:44:40 45° E 19:50:34 10° NNE
HJ-1C 4.0 19:45:19 31° E 19:45:59 35° ENE 19:49:08 10° N
SL-16 R/B 3.9 19:43:18 10° N 19:46:39 16° NE 19:47:52 15° NE
SL-24 R/B - RUBIN 2 4.3 19:42:52 10° NW 19:47:45 58° WSW 19:52:08 10° SSE
NOAA 12 4.3 19:43:37 10° S 19:48:55 75° WSW 19:54:16 10° NNW
COSMO-SKYMED 1 3.1 19:44:48 10° N 19:49:07 63° WNW 19:53:24 10° SSW
Cosmos 1400 Rocket 4.4 19:46:25 10° NNW 19:50:12 38° W 19:53:55 10° SSW
Cosmos 44 3.9 19:46:32 10° S 19:50:15 28° ESE 19:50:25 28° ESE
Cosmos 1934 Rocket 4.4 19:45:04 10° SSE 19:50:54 39° E 19:56:44 10° NNE
Cosmos 1726 2.7 19:49:38 10° SSE 19:56:47 - NNE 19:52:29 34° ESE
Cosmos 1908 3.1 19:50:41 10° S 19:54:35 82° E 19:58:31 10° N
Abrixas rocket 2.2 19:52:54 10° W 19:56:11 76° N 19:56:58 48° ENE
Spot 2 Rocket 4.3 19:56:37 28° E 19:57:21 29° ENE 20:01:41 10° N
Sich 1 3.3 19:55:12 10° N 19:59:23 43° ENE 20:00:42 33° ESE
MOS 1-B Rocket 4.2 19:57:04 21° SE 20:00:36 45° ENE 20:06:26 10° N
COSMOS 2428 2.6 19:55:20 10° NNW 20:01:03 82° ENE 20:06:07 13° SSE
Cosmos 1980 4.4 19:56:03 10° NNW 20:01:13 35° NE 20:02:43 30° E
GENESIS II 4.1 19:57:35 10° SSW 20:01:34 77° SE 20:03:24 31° NE
Cosmos 2360 Rocket 3.2 19:56:23 10° NW 20:01:49 48° WSW 20:07:13 10° S
H-2A R/B 2.6 19:58:47 10° SSE 20:02:40 79° ENE 20:06:36 10° N
Cosmos 2333 Rocket 2.4 19:58:50 10° NNW 20:04:25 50° NE 20:06:48 31° ESE
Cosmos 1805 Rocket 3.4 20:01:22 10° N 20:05:46 75° E 20:10:09 10° SSE
Cosmos 44 Rocket 3.5 20:03:56 10° S 20:08:21 42° ESE 20:08:42 41° ESE
Cosmos 1833 4.5 20:04:10 10° SW 20:09:50 69° WNW 20:15:29 10° NNE
Cosmos 2123 Rocket 4.0 20:03:45 10° N 20:09:54 56° ENE 20:15:20 13° SSE
Cosmos 2219 3.3 20:07:56 10° S 20:13:27 50° ESE 20:17:12 20° NE
Cosmos 1666 Rocket 3.5 20:10:07 10° N 20:14:28 60° ENE 20:15:22 48° SE
Iridium 4 Rocket 3.8 20:11:39 10° S 20:17:12 80° W 20:23:06 10° N
CZ-4C R/B 2.4 20:13:24 10° S 20:18:21 44° ESE 20:19:03 42° E
Cosmos 1605 Rocket 4.2 20:13:08 10° SSE 20:18:50 43° E 20:24:31 10° NNE
ATLAS 5 CENTAUR R/B 4.3 20:16:15 10° NNW 20:19:16 15° N 20:21:52 11° NNE
FengYun 1-2 T 4.3 20:14:17 10° S 20:19:47 77° WSW 20:25:18 10° NNW
CZ-2D R/B 3.5 20:20:57 52° NE 20:20:57 52° NE 20:24:14 10° N
Aureole 2 Rocket 2.5 20:18:24 10° NNW 20:22:15 78° ENE 20:22:19 77° E
Cosmos 1633 Rocket 3.0 20:18:39 10° N 20:23:03 61° ENE 20:23:09 61° E
Cosmos 1048 Rocket 3.8 20:18:02 10° SSW 20:23:09 77° ESE 20:28:18 10° NNE
SL-8 R/B 3.6 20:18:34 10° WSW 20:23:22 70° SSE 20:24:09 58° ESE
Thor Agena Rocket 3.5 20:19:56 10° NNE 20:25:04 80° WNW 20:30:08 10° SSW
BREEZE-M DEB (TANK) 2.8 20:16:05 10° W 20:25:29 79° S 20:26:23 56° ESE
FREGAT/IRIS 4.3 20:28:31 23° SW 20:29:46 33° W 20:32:33 10° NNW
Envisat 3.0 20:31:40 57° E 20:31:52 57° ENE 20:36:52 10° N
Cosmos 158 Rocket 4.4 20:40:30 10° SW 20:45:30 59° WNW 20:50:41 10° NNE
USA 267 3.2 20:47:00 53° ESE 20:47:39 56° SE 20:54:02 10° SW
Cosmos 1447 Rocket 4.4 20:43:22 10° N 20:49:42 63° ENE 20:49:59 62° E
Atlas Centaur 2 4.5 20:48:32 10° SSW 20:49:44 11° S 20:50:12 11° S
Cosmos 2219 Rocket 2.4 20:45:51 10° NNW 20:51:26 67° WSW 20:53:09 44° S
Gbstr 26 Del rocket 3.9 20:48:31 10° WNW 20:53:41 61° SSW 20:54:34 55° S
Cosmos 1331 Rocket 3.9 20:53:43 10° NNW 20:58:49 83° WNW 20:58:49 83° WNW
Lacrosse 5 rocket 3.4 20:58:14 10° NW 21:01:11 21° N 21:01:11 21° N
Resurs 01 Rocket 2.5 21:07:13 47° NW 21:07:13 47° NW 21:10:38 10° NNW
NOSS 0 Rocket 4.1 21:02:01 10° NNW 21:08:10 68° WSW 21:09:14 57° SSW
Meteor 2-10 4.4 21:06:40 10° SSW 21:11:38 58° WNW 21:16:41 10° N
Cosmos 2237 Rocket 2.5 21:16:37 10° NNW 21:21:44 65° WNW 21:21:44 65° WNW
USA 234 3.2 21:24:35 78° NNE 21:24:35 78° NNE 21:31:02 10° NW
Meteor 2-3 Rocket 4.1 21:18:52 10° NNW 21:23:33 59° NNW 21:23:33 59° NNW
H-2A R/B 4.4 21:35:40 15° N 21:35:40 15° N 21:36:36 10° N
SL-16 R/B 3.3 21:26:17 10° NNW 21:29:45 37° N 21:29:45 37° N
Cosmos 2333 Rocket 3.7 21:43:32 10° NW 21:48:26 30° WSW 21:48:50 30° WSW
ATLAS 5 CENTAUR R/B 4.3 22:01:15 10° NNW 22:03:25 19° N 22:03:25 19° N
CZ-4C R/B 4.0 22:01:43 10° WSW 22:04:19 27° W 22:04:19 27° W
